Location: Kawakawa
(35.3830°S, 174.0670°E)
Time: 10:32:39
(UTC+13:00)

MetOp-B - Pass Details

Date: 24 January 2019
Orbit: 820 x 820 km, 98.7° (Epoch: 18 February)

Event Time Altitude Azimuth Distance (km) Brightness Sun altitude
Rises 23:17:32 0° 169° (S) 3,387 7.9 -26.3°
Reaches altitude 10° 23:19:54 10° 170° (S) 2,447 7.1 -26.6°
Maximum altitude 23:25:19 76° 255° (WSW) 855 4.2 -27.2°
Enters shadow 23:25:58 67° 311° (NW) 898 4.2 -27.3°
